Погода в Григорьеве

Россия / Владимирская область     55°30′26″N   40°57′56″E
темп.,
°C
ветер,
м/с
пор.,
м/с
влажн.,
%
обл.,
%
осадки,
мм/ч
давл.,
гПа
погр.,
м
3 августа, вт
вт300:00+21ююв397359 0.3 1005182
03:00+18юз2390100 0.5 100667
06:00+19ююз3889100 0.0 1007286
09:00+22юз3573100 0.3 1008722
12:00+25зюз355632 0.0 10081114
15:00+26юз4647100 0.0 10082032
18:00+22зсз4862100 0.1 1008498
21:00+20з25721 0.1 1010124
4 августа, ср
ср400:00+18зсз2567100 0.0 1012137
03:00+15зсз24800 0.0 101271
06:00+15зсз26761 0.0 1014165
09:00+21зсз24490 0.0 1014762
12:00+24зсз3536100 0.0 10142671
15:00+22з244695 0.0 1015766
18:00+22сз134715 0.0 1015610
21:00+18зсз116296 0.0 101615
5 августа, чт
чт500:00+17зсз226398 0.0 101642
03:00+15сз227398 0.0 101726
06:00+16с246837 0.0 1018133
09:00+22в11449 0.0 1018770
12:00+25юз2338100 0.0 10172400
15:00+23ссз2346100 0.0 1017648
18:00+20св245747 0.0 1017101
21:00+19всв2259100 0.0 101737
6 августа, пт
пт600:00+18с1161100 0.0 101612
03:00+17с2365100 0.0 101679
06:00+16всв4978100 0.0 1016297
09:00+17вюв4106599 0.1 1014372
12:00+22ююз1449100 0.0 1014674
15:00+20всв476299 0.0 1012201
18:00+17св4977100 0.1 1012187
21:00+17в41170100 0.1 1011250
7 августа, сб
сб700:00+16всв237785 0.0 101149
03:00+16всв237648 0.0 101251
06:00+17вюв247294 0.0 101295
09:00+25ююв464217 0.0 1011536
12:00+31ю453061 0.0 10101112
15:00+33ю462644 0.0 10101993
18:00+28ююв3739100 0.0 1009172
21:00+24ю395494 0.0 1011297